Location: Unspecified
(47.9110°N, 14.3980°E)
Time: 17:22:54
(UTC+00:00)

Cosmos 1743 - Pass Details

Date: 06 August 2020
Orbit: 509 x 528 km, 82.5° (Epoch: 25 September)

Event Time Altitude Azimuth Distance (km) Brightness Sun altitude
Exits shadow 23:05:19 51° 7° (N) 672 3.5 -25.7°
Drops below altitude 10° 23:08:18 10° 9° (N) 1,784 6.4 -25.7°
Sets 23:10:28 0° 10° (N) 2,680 7.6 -25.7°
